Time,TemperatureF,DewpointF,PressureIn,WindDirection,WindDirectionDegrees,WindSpeedMPH,WindSpeedGustMPH,Humidity,HourlyPrecipIn,Conditions,Clouds,dailyrainin,SoftwareType,DateUTC
2013-10-06 04:15:00,45.7,45.2,29.93,East,90,0.0,-999.0,98,-99.99,,,0.00,Acu-Link.com,2013-10-06 11:15:00,
2013-10-06 04:30:00,45.5,45.2,29.92,ESE,112,0.0,-999.0,99,-99.99,,,0.00,Acu-Link.com,2013-10-06 11:30:00,
2013-10-06 04:46:00,45.5,45.2,29.92,ESE,112,0.0,-999.0,99,-99.99,,,0.00,Acu-Link.com,2013-10-06 11:46:00,
2013-10-06 05:13:00,45.5,45.2,29.91,ESE,112,0.0,-999.0,99,-99.99,,,0.00,Acu-Link.com,2013-10-06 12:13:00,
2013-10-06 05:31:00,45.3,45.0,29.91,ESE,112,0.0,-999.0,99,-99.99,,,0.00,Acu-Link.com,2013-10-06 12:31:00,
2013-10-06 05:46:00,44.8,44.5,29.90,ESE,112,0.0,-999.0,99,-99.99,,,0.00,Acu-Link.com,2013-10-06 12:46:00,
2013-10-06 06:01:00,45.1,44.8,29.90,SSE,157,0.0,-999.0,99,-99.99,,,0.00,Acu-Link.com,2013-10-06 13:01:00,
2013-10-06 06:17:00,45.7,45.4,29.90,SE,135,1.7,-999.0,99,-99.99,,,0.00,Acu-Link.com,2013-10-06 13:17:00,
2013-10-06 06:32:00,45.9,45.6,29.89,ESE,112,1.7,-999.0,99,-99.99,,,0.00,Acu-Link.com,2013-10-06 13:32:00,
2013-10-06 06:47:00,46.6,46.3,29.89,SE,135,0.0,-999.0,99,-99.99,,,0.00,Acu-Link.com,2013-10-06 13:47:00,
2013-10-06 07:03:00,46.6,46.3,29.89,ESE,112,0.0,-999.0,99,-99.99,,,0.00,Acu-Link.com,2013-10-06 14:03:00,
2013-10-06 07:20:00,46.6,46.3,29.88,South,180,1.7,-999.0,99,-99.99,,,0.00,Acu-Link.com,2013-10-06 14:20:00,
2013-10-06 07:36:00,46.8,46.5,29.88,SE,135,0.0,-999.0,99,-99.99,,,0.00,Acu-Link.com,2013-10-06 14:36:00,
2013-10-06 07:51:00,46.9,46.6,29.87,ESE,112,0.0,-999.0,99,-99.99,,,0.00,Acu-Link.com,2013-10-06 14:51:00,
2013-10-06 08:08:00,47.3,47.0,29.87,ESE,112,0.0,-999.0,99,-99.99,,,0.00,Acu-Link.com,2013-10-06 15:08:00,
2013-10-06 08:23:00,47.8,47.5,29.87,East,90,0.0,-999.0,99,-99.99,,,0.00,Acu-Link.com,2013-10-06 15:23:00,
2013-10-06 08:39:00,48.4,48.1,29.86,SE,135,0.0,-999.0,99,-99.99,,,0.00,Acu-Link.com,2013-10-06 15:39:00,
2013-10-06 08:54:00,48.7,48.4,29.86,ESE,112,0.0,-999.0,99,-99.99,,,0.00,Acu-Link.com,2013-10-06 15:54:00,
2013-10-06 09:10:00,49.3,49.0,29.85,SSE,157,0.0,-999.0,99,-99.99,,,0.00,Acu-Link.com,2013-10-06 16:10:00,
2013-10-06 09:25:00,49.8,49.5,29.85,South,180,0.0,-999.0,99,-99.99,,,0.00,Acu-Link.com,2013-10-06 16:25:00,
2013-10-06 09:40:00,50.4,50.1,29.85,ESE,112,0.0,-999.0,99,-99.99,,,0.00,Acu-Link.com,2013-10-06 16:40:00,
2013-10-06 09:55:00,51.3,51.0,29.85,ESE,112,0.0,-999.0,99,-99.99,,,0.00,Acu-Link.com,2013-10-06 16:55:00,
2013-10-06 10:11:00,52.0,51.5,29.85,ESE,112,0.0,-999.0,98,-99.99,,,0.00,Acu-Link.com,2013-10-06 17:11:00,
2013-10-06 11:58:00,57.6,53.1,29.83,WNW,292,2.7,-999.0,85,-99.99,,,0.00,Acu-Link.com,2013-10-06 18:58:00,
2013-10-06 12:13:00,58.8,53.3,29.82,SE,135,3.2,-999.0,82,-99.99,,,0.00,Acu-Link.com,2013-10-06 19:13:00,
2013-10-06 12:28:00,60.6,53.7,29.82,ESE,112,2.7,-999.0,78,-99.99,,,0.00,Acu-Link.com,2013-10-06 19:28:00,
2013-10-06 12:44:00,60.4,53.5,29.81,South,180,3.7,-999.0,78,-99.99,,,0.00,Acu-Link.com,2013-10-06 19:44:00,
2013-10-06 13:04:00,61.3,54.0,29.80,WNW,292,2.2,-999.0,77,-99.99,,,0.00,Acu-Link.com,2013-10-06 20:04:00,
2013-10-06 13:22:00,62.8,54.0,29.79,WNW,292,2.7,-999.0,73,-99.99,,,0.00,Acu-Link.com,2013-10-06 20:22:00,
2013-10-06 13:40:00,62.4,54.0,29.79,ESE,112,3.2,-999.0,74,-99.99,,,0.00,Acu-Link.com,2013-10-06 20:40:00,
2013-10-06 14:13:00,63.3,54.5,29.77,WNW,292,2.2,-999.0,73,-99.99,,,0.00,Acu-Link.com,2013-10-06 21:13:00,
2013-10-06 15:52:00,64.8,54.8,29.74,ESE,112,7.8,-999.0,70,-99.99,,,0.00,Acu-Link.com,2013-10-06 22:52:00,
2013-10-06 16:24:00,64.6,52.6,29.73,ESE,112,6.3,-999.0,65,-99.99,,,0.00,Acu-Link.com,2013-10-06 23:24:00,
2013-10-06 16:40:00,67.3,50.1,29.73,SSW,202,5.3,-999.0,54,-99.99,,,0.00,Acu-Link.com,2013-10-06 23:40:00,
2013-10-06 16:57:00,67.5,49.2,29.73,North,0,3.7,-999.0,52,-99.99,,,0.00,Acu-Link.com,2013-10-06 23:57:00,
2013-10-06 17:12:00,66.9,50.2,29.72,SSW,202,2.2,-999.0,55,-99.99,,,0.00,Acu-Link.com,2013-10-07 00:12:00,
2013-10-06 17:29:00,67.3,46.9,29.72,WSW,247,5.3,-999.0,48,-99.99,,,0.00,Acu-Link.com,2013-10-07 00:29:00,
2013-10-06 17:44:00,67.1,43.9,29.73,South,180,3.2,-999.0,43,-99.99,,,0.00,Acu-Link.com,2013-10-07 00:44:00,
2013-10-06 18:00:00,66.7,41.0,29.73,NE,45,3.2,-999.0,39,-99.99,,,0.00,Acu-Link.com,2013-10-07 01:00:00,
2013-10-06 18:15:00,65.5,42.4,29.73,SW,225,3.2,-999.0,43,-99.99,,,0.00,Acu-Link.com,2013-10-07 01:15:00,
2013-10-06 18:30:00,64.4,43.2,29.73,NNE,22,2.7,-999.0,46,-99.99,,,0.00,Acu-Link.com,2013-10-07 01:30:00,
2013-10-06 18:46:00,63.0,44.6,29.73,West,270,1.7,-999.0,51,-99.99,,,0.00,Acu-Link.com,2013-10-07 01:46:00,
2013-10-06 19:16:00,61.3,45.0,29.74,East,90,1.7,-999.0,55,-99.99,,,0.00,Acu-Link.com,2013-10-07 02:16:00,
2013-10-06 19:32:00,60.6,45.7,29.73,ESE,112,3.7,-999.0,58,-99.99,,,0.00,Acu-Link.com,2013-10-07 02:32:00,
2013-10-06 19:47:00,59.9,46.4,29.73,WSW,247,3.2,-999.0,61,-99.99,,,0.00,Acu-Link.com,2013-10-07 02:47:00,
2013-10-06 20:02:00,59.4,47.6,29.72,West,270,2.2,-999.0,65,-99.99,,,0.00,Acu-Link.com,2013-10-07 03:02:00,
2013-10-06 20:17:00,59.2,47.4,29.72,SW,225,2.2,-999.0,65,-99.99,,,0.00,Acu-Link.com,2013-10-07 03:17:00,
2013-10-06 20:34:00,58.6,47.3,29.73,ENE,67,5.8,-999.0,66,-99.99,,,0.00,Acu-Link.com,2013-10-07 03:34:00,
2013-10-06 20:49:00,58.1,48.0,29.72,SE,135,4.2,-999.0,69,-99.99,,,0.00,Acu-Link.com,2013-10-07 03:49:00,
2013-10-06 21:08:00,58.1,48.0,29.72,South,180,1.7,-999.0,69,-99.99,,,0.00,Acu-Link.com,2013-10-07 04:08:00,
2013-10-06 21:23:00,57.7,48.0,29.72,West,270,2.2,-999.0,70,-99.99,,,0.00,Acu-Link.com,2013-10-07 04:23:00,
2013-10-06 21:39:00,57.4,48.4,29.72,NW,315,5.3,-999.0,72,-99.99,,,0.00,Acu-Link.com,2013-10-07 04:39:00,
2013-10-06 21:54:00,57.4,48.8,29.71,ESE,112,4.2,-999.0,73,-99.99,,,0.00,Acu-Link.com,2013-10-07 04:54:00,
2013-10-06 22:10:00,57.2,49.0,29.71,West,270,3.7,-999.0,74,-99.99,,,0.00,Acu-Link.com,2013-10-07 05:10:00,
2013-10-06 22:26:00,56.7,49.6,29.72,SSE,157,2.2,-999.0,77,-99.99,,,0.00,Acu-Link.com,2013-10-07 05:26:00,
2013-10-06 22:41:00,56.5,49.7,29.71,East,90,6.8,-999.0,78,-99.99,,,0.00,Acu-Link.com,2013-10-07 05:41:00,
2013-10-06 22:56:00,56.5,49.7,29.71,SW,225,4.2,-999.0,78,-99.99,,,0.00,Acu-Link.com,2013-10-07 05:56:00,
2013-10-06 23:12:00,56.7,49.9,29.71,South,180,3.7,-999.0,78,-99.99,,,0.00,Acu-Link.com,2013-10-07 06:12:00,
2013-10-06 23:27:00,56.7,49.9,29.71,West,270,4.7,-999.0,78,-99.99,,,0.00,Acu-Link.com,2013-10-07 06:27:00,
2013-10-06 23:42:00,56.7,50.6,29.72,ESE,112,4.7,-999.0,80,-99.99,,,0.00,Acu-Link.com,2013-10-07 06:42:00,
2013-10-06 23:59:00,55.2,51.1,29.72,SE,135,3.7,-999.0,86,-99.99,,,0.00,Acu-Link.com,2013-10-07 06:59:00,